{"data":{"norad_id":54648,"intl_designator":"2022-166G","name":"ONEWEB-0580","alt_names":[],"object_type":"PAYLOAD","status":"ACTIVE","operator":null,"country":"UK","launch_date":"2022-12-08","launch_site_code":"AFETR","launch_vehicle":null,"mission":null,"orbit_class":"UNKNOWN","rcs_meters":null,"size_class":null,"mass_kg":null,"dimensions":null,"purposes":["comms"],"wikipedia_slug":null,"has_3d_model":false,"image_url":null,"decayed_at":null,"tle_current":{"epoch":"2026-05-25T05:29:33.141120Z","epoch_age_seconds":51965,"freshness":"FRESH","line1":"1 54648U 22166G   26145.22885580  .00000121  00000+0  26097-3 0  9990","line2":"2 54648  87.9253 248.5496 0002407  99.3956 260.7450 13.21826187168519","mean_motion":13.21826187,"eccentricity":0.0002407,"inclination_deg":87.9253,"raan_deg":248.5496,"arg_perigee_deg":99.3956,"mean_anomaly_deg":260.745,"bstar":0.00026097,"rev_number":16851,"period_min":108.94019305732,"perigee_km":1175.9339531017,"apogee_km":1179.571358382,"semimajor_km":7555.8896557419,"source":"CELESTRAK","updated_at":"2026-05-25T13:38:22.627294Z"}}}